Regional Weather Roundup
Issued by NWS

Home | Current Version | Previous Version | Graphics & Text | Print | Product List | Glossary On
Versions: 1 2 3 4 5 6 7 8 9 10 11 12 13 14 15 16 17 18 19 20 21 22 23 24 25 26 27 28 29 30 31 32 33 34 35 36 37 38 39 40 41 42 43 44 45 46 47 48 49 50
000
ASUS43 KIND 230059
RWRIN

WEATHER ROUNDUP FOR INDIANA
NATIONAL WEATHER SERVICE INDIANAPOLIS IN
800 PM EST WED FEB 22 2017

NOTE: "FAIR" INDICATES FEW OR NO CLOUDS BELOW 12,000 FEET WITH NO
SIGNIFICANT WEATHER AND/OR OBSTRUCTIONS TO VISIBILITY.

* - STATION DOES NOT REPORT WEATHER SUCH AS PRECIPITATION OR FOG.

+ - STATION NOT QUALITY CONTROLLED BY THE NATIONAL WEATHER SERVICE.
    USE DATA WITH CAUTION...ESPECIALLY DEWPOINT AND RELATIVE
    HUMIDITY OBSERVATIONS.

INZ001>003-010>013-019-020-230200-
NORTHWEST INDIANA

CITY           SKY/WX    TMP DP  RH WIND       PRES   REMARKS
GARY /AIRPORT/ CLEAR     63  55  77 S9        29.64F
KNOX *+        CLEAR     55  36  47 S10       29.69F
LA PORTE +     CLEAR     58  53  85 S10       29.68F
MICHIGAN CITY+ CLEAR     59  54  82 S8G18     29.66F
RENSSELAER +   CLEAR     59  54  82 S9        29.69F

$$

LMZ046-743>745-230200-
SOUTHERN LAKE MICHIGAN

STATION/POSITION TIME  TEMP    WIND        PRES    WAVE
                       AIR SEA DIR/SP/G            HT
                 (UTC) (F)     (DEG/KT/KT) (MB)    (FT)
BURNS HARBOR     0040   62     180/ 12/ 20 1004.4F
MICHIGAN CITY    0030   62     160/ 14/ 17   N/A

$$

INZ004-005-014>016-021>024-230200-
NORTH CENTRAL INDIANA

CITY           SKY/WX    TMP DP  RH WIND       PRES   REMARKS
ELKHART        CLEAR     55  52  88 S7        29.70F
GOSHEN         CLEAR     58  51  78 S12       29.70F
SOUTH BEND     CLEAR     57  53  86 S10       29.69F
WARSAW +       CLEAR     55  52  88 S5        29.72S

$$

INZ006>009-017-018-025>027-230200-
NORTHEAST INDIANA

CITY           SKY/WX    TMP DP  RH WIND       PRES   REMARKS
ANGOLA *+      CLOUDY    57  48  72 S6        29.73F
AUBURN +       CLOUDY    59  52  77 CALM      29.75F
FORT WAYNE     PTCLDY    54  51  90 S9        29.75F
KENDALLVILLE + CLOUDY    57  54  87 S10       29.73F

$$

INZ028-029-035-036-043>045-051>053-230200-
WEST CENTRAL INDIANA

CITY           SKY/WX    TMP DP  RH WIND       PRES   REMARKS
LAFAYETTE      CLEAR     62  55  77 S9        29.70F
TERRE HAUTE    CLOUDY    60  52  74 S8        29.76S

$$

INZ030>032-037>040-046>048-054>057-064-065-230200-
CENTRAL INDIANA

CITY           SKY/WX    TMP DP  RH WIND       PRES   REMARKS
CP ATTERBURY + MOCLDY    61  54  77 S3        29.80R
FRANKFORT +    CLOUDY    59  55  86 S5        29.75F
GREENWOOD *+   CLEAR     60  56  87 S5        29.79R
INDIANAPOLIS   MOCLDY    60  54  80 S7        29.77S
-EAGLE CREEK   CLEAR     61  53  75 S3        29.76S
KOKOMO +       CLEAR     57  53  86 S8        29.75F
MT COMFORT *+  CLEAR     57  54  88 S6        29.79R
SHELBYVILLE    PTCLDY    59  53  80 SE7       29.78S
ZIONSVILLE +   CLEAR     59  53  82 S9        29.76F

$$

INZ033-034-041-042-049-050-058-059-230200-
EAST CENTRAL INDIANA

CITY           SKY/WX    TMP DP  RH WIND       PRES   REMARKS
MUNCIE         MOCLDY    61  54  77 S8        29.77F

$$

INZ060-061-067>069-081>083-085>088-230200-
SOUTHWEST INDIANA

CITY           SKY/WX    TMP DP  RH WIND       PRES   REMARKS
EVANSVILLE     CLOUDY    63  54  72 CALM      29.80S
HUNTINGBURG *+ PTCLDY    63  55  77 S3        29.81S

$$

INZ062-063-066-070>080-084-089>092-230200-
SOUTH CENTRAL AND SOUTHEAST INDIANA

CITY           SKY/WX    TMP DP  RH WIND       PRES   REMARKS
BLOOMINGTON    PTCLDY    63  53  70 S8        29.79R
MADISON *+     PTCLDY    61  54  77 S5        29.83F
SEYMOUR +      PTCLDY    63  55  77 S10       29.80R

$$





USA.gov is the U.S. government's official web portal to all federal, state and local government web resources and services.